Regional Weather Roundup
Issued by NWS Charleston, SC

Current Version | Previous Version | Graphics & Text | Print | Product List | Glossary On
Versions: 1 2 3 4 5 6 7 8 9 10 11 12 13 14 15 16 17 18 19 20 21 22 23 24 25 26 27 28 29 30 31 32 33 34 35 36 37 38 39 40 41 42 43 44 45 46 47 48 49 50
000
ASUS42 KCHS 171912
RWRCHS

REGIONAL WEATHER ROUNDUP
NATIONAL WEATHER SERVICE CHARLESTON SC
300 PM EDT FRI APR 17 2015

NOTE: "FAIR" INDICATES FEW OR NO CLOUDS BELOW 12,000 FEET WITH NO
SIGNIFICANT WEATHER AND/OR OBSTRUCTIONS TO VISIBILITY.

NOT ALL STATIONS ARE QUALITY CONTROLLED BY THE NATIONAL
WEATHER SERVICE. USE DATA WITH CAUTION...ESPECIALLY
DEWPOINT OBSERVATIONS.

SCZ027-030-031-034>040-042>050-172000-
...SOUTHEAST SOUTH CAROLINA...

CITY           SKY/WX    TMP DP  RH WIND       PRES   REMARKS
N CHARLESTON   CLOUDY    73  68  84 NW6       30.04F
WATERFRONT PRK   N/A     72 N/A N/A N8          N/A
MOUNT PLEASANT MOCLDY    73  70  88 N5        30.03F
PINOPOLIS      NOT AVBL
MONCKS CORNER  CLOUDY    70  66  88 N3        30.04F
SUMMERVILLE    CLOUDY    72  68  88 CALM      30.06F
BEAUFORT MCAS  CLOUDY    75  67  76 N9        30.04F
BEAUFORT ARPT  MOCLDY    73  68  83 CALM      30.04F
HILTON HEAD IS PTSUNNY   73  68  83 N5        30.05
WALTERBORO     CLOUDY    70  64  83 N3        30.06F
ALLENDALE      MOCLDY    73  66  78 CALM      30.05F

...SOUTHERN MIDLANDS AND PEE DEE...

CITY           SKY/WX    TMP DP  RH WIND       PRES   REMARKS
GEORGETOWN     NOT AVBL
KINGSTREE      NOT AVBL
ORANGEBURG     CLOUDY    72  63  73 NE5       30.06F
BARNWELL       CLOUDY    73  66  78 NE5       30.06F
AIKEN          MOCLDY    68  61  77 CALM      30.10F
MANNING        CLOUDY    72  54  53 N3        30.04F
COLUMBIA       CLOUDY    70  61  73 E5        30.06F
SUMTER         LGT RAIN  70  64  83 VRB3      30.04F
FLORENCE       CLOUDY    71  64  78 N5        30.06F
MYRTLE BEACH   PTSUNNY   73  66  78 E12       30.06F
N MYRTLE BEACH CLOUDY    72  68  87 E6        30.04F

$$

GAZ063-065-086>088-099>101-113>116-118-119-134>141-150-172000-
...SOUTHEAST GEORGIA...

CITY           SKY/WX    TMP DP  RH WIND       PRES   REMARKS
SAVANNAH ARPT  CLOUDY    73  64  73 CALM      30.05F
HUNTER AAF     CLOUDY    75  68  78 NW7       30.02F
FORT STEWART   CLOUDY    72  64  76 NW1       30.03F
STATESBORO       N/A     68  68 100 NW3       30.06F
SYLVANIA       CLOUDY    71  66  85 CALM      30.07F
CLAXTON        CLOUDY    68  64  88 CALM      30.06F

...CSRA...CENTRAL AND FAR SOUTHEAST GEORGIA...

CITY           SKY/WX    TMP DP  RH WIND       PRES   REMARKS
THOMSON        CLOUDY    67  64  92 CALM      30.12F
AUGUSTA-BUSH   CLOUDY    68  62  81 CALM      30.06F
AUGUSTA-DANIEL CLOUDY    70  61  73 NW6       30.08F
SWAINSBORO     CLOUDY    70  64  83 CALM      30.08F
VIDALIA        CLOUDY    70  64  83 E5        30.07F
EASTMAN        CLOUDY    68  68 100 CALM      30.10F
HAZLEHURST     MOCLDY    72  67  84 N3        30.05F
ALMA           CLOUDY    74  64  71 E5        30.05F
WAYCROSS       MOSUNNY   78  69  73 CALM      30.05F
JESUP          MOCLDY    79  68  69 NE5       30.05F
BAXLEY         CLOUDY    75  66  73 NE5       30.05F
BRUNSWICK      CLOUDY    77  64  65 NW3       30.05F
SAINT SIMONS   CLOUDY    72  65  78 VRB3      30.04F

$$

SCZ027-028-034-036>038-045-046-048>050-GAZ119-141-172000-
...LAKE AND SUPPLEMENTAL COASTAL OBSERVATIONS...

STATION/POSITION TIME  TEMP    WIND        PRES    WAVE   SWELL
                       AIR SEA DIR/SP/G            HT/PER HT/PER/DIR
                 (UTC) (F)     (DEG/KT/KT) (MB)    (FT/S) (FT/S/D)
UPR LAKE MARION  NOT AVBL
WINYAH BAY       1745   71      40/ 11     1017.0
LAKE MURRAY      1800   65     190/  4/  4 1018.6F
ACE BASIN NERRS  NOT AVBL
FORT PULASKI     1800   71 71  280/  5/  5 1018.2F
SAPELO ISLAND    NOT AVBL

$$

ANZ835-935-AMZ111-154-330-350-352-354-370-450-454-472-172000-
...C-MAN AND BUOY OBSERVATIONS...

STATION/POSITION TIME  TEMP    WIND        PRES    WAVE   SWELL
                       AIR SEA DIR/SP/G            HT/PER HT/PER/DIR
                 (UTC) (F)     (DEG/KT/KT) (MB)    (FT/S) (FT/S/D)
BUOY 41004       1850   72 75   10/ 12/ 16 1015.6F   5/ 9   3/ 9
BUOY 41008       1850   65 67  350/  4/  6 1017.9F   3/10   3/ 80/10
FOLLY BEACH CMAN 1900   72     360/  3/  4 1016.9F
CAPERS NEARSHORE NOT AVBL
FRIPP NEARSHORE  1800   69     360/  6/  8 1017.7F


STATION/POSITION TIME  TEMP    WIND        PRES    WAVE   SWELL
                       AIR SEA DIR/SP/G            HT/PER HT/PER/DIR
                 (UTC) (F)     (DEG/KT/KT) (MB)    (FT/S) (FT/S/D)
5E ST. MARYS GA  1821      71                N/A     3/11   2/ 90/11
FRYING PAN BUOY  1850   74 73   90/  8/ 10 1016.9F   6/ 8   5/130/ 8
BUOY 41025       1850   72 74  190/  4/  6 1017.9F   6/ 8   7/ 90/ 8
CAPE LOOKOUT NC  1900   69      90/  5/  5 1017.5F
BUOY 41002       1850   72 73  220/ 14/ 17 1016.3F   7/ 9   5/ 70/ 9
BUOY 41010       1820   78 79  260/ 10/ 12 1017.5F
ST AUGUSTINE FL  1900   67 69   40/  6/  7 1018.1F


$$


USA.gov is the U.S. government's official web portal to all federal, state and local government web resources and services.